Content
SEND FEEDBACK

Daily
Averages
Monthly
Summary
United States of America

PUUHI, HAWAII


Home > North America > United States > Hawaii
Elevation: 80 feet     Latitude: 21 53N     Longitude: 159 26W

WEATHER
 
SELECT A DAY
Number of Records: 219,355;   Date Range: 1/1/95 - 8/30/14
 
SHARE

PRINT THIS DATA

[ ← Previous Day ]
WEATHER ALMANAC - JANUARY 23, 2013
[ Next Day → ]
[ °C ]   °F
Weather ElementAverageHighLow
Temperature71.4 °F73.9 °F (11:53 am)69.1 °F (1:53 pm)
Dewpoint62.8 °F66 °F (11:53 pm)59 °F (4:53 am)
Humidity74.4 %84 % (11:53 pm)64 % (4:53 am)
Barometer30.08 in30.12 in (9:53 am)30.04 in (3:53 pm)
Wind Speed10.1 mph17.3 mph (2:17 am)
Wind Gust20.7 mph (1:53 am)
Weather ElementAverage
Visibility9.5 mi
Wind DirectionENE (63.3 °)

Weather ElementTotal
Precipitation0.05 in
Cooling Degree Days6.5 (Base 65)
Growing Degree Days21.5 (Base 50)
Averaged from 45 records on January 23, 2013
WEATHER CONDITIONS BREAKOUT
WIND DIRECTION BREAKOUT
WEATHER BY HOUR - JANUARY 23, 2013
[ °C ]   °F
Local TimeTemperatureDewpointHumidityBarometerVisibilityWind DirectionWind SpeedGust SpeedPrecipitationEventsConditions
12:53 AM72.0 °F60.1 °F66 %30.09 in10.0 miNE (50°)11.5 mph0.00 inOvercast
1:53 AM71.1 °F62.1 °F73 %30.09 in7.0 miNE (50°)10.4 mph20.7 mph0.01 inRainRain
2:17 AM69.8 °F62.6 °F78 %30.08 in10.0 miENE (70°)17.3 mph0.00 inOvercast
2:27 AM69.8 °F60.8 °F73 %30.08 in10.0 miEast (80°)16.1 mph0.00 inMostly Cloudy
2:53 AM70.0 °F60.1 °F71 %30.07 in10.0 miENE (70°)16.1 mph0.00 inPartly Cloudy
3:53 AM71.1 °F60.1 °F68 %30.06 in10.0 miENE (70°)13.8 mphMostly Cloudy
4:53 AM72.0 °F59.0 °F64 %30.06 in10.0 miNE (50°)10.4 mphOvercast
5:36 AM69.8 °F60.8 °F73 %30.06 in10.0 miENE (60°)9.2 mph0.00 inRainLight Rain
5:50 AM71.6 °F60.8 °F69 %30.07 in10.0 miNE (50°)10.4 mph0.00 inOvercast
5:53 AM71.1 °F61.0 °F70 %30.06 in10.0 miNE (50°)10.4 mph0.00 inOvercast
6:53 AM71.1 °F61.0 °F70 %30.08 in10.0 miENE (70°)15.0 mphOvercast
7:53 AM71.1 °F59.0 °F66 %30.09 in10.0 miENE (60°)13.8 mphOvercast
8:53 AM71.1 °F61.0 °F70 %30.10 in10.0 miNE (40°)9.2 mphOvercast
9:53 AM72.0 °F59.0 °F64 %30.12 in10.0 miNE (50°)10.4 mphOvercast
10:53 AM73.0 °F61.0 °F66 %30.12 in10.0 miENE (70°)10.4 mphOvercast
11:53 AM73.9 °F61.0 °F64 %30.10 in10.0 miENE (60°)11.5 mphOvercast
12:26 PM71.6 °F62.6 °F73 %30.10 in7.0 miENE (60°)8.1 mph0.01 inRainLight Rain
12:33 PM71.6 °F64.4 °F78 %30.09 in10.0 miNE (50°)5.8 mph0.01 inOvercast
12:53 PM73.9 °F64.9 °F73 %30.08 in10.0 miENE (70°)8.1 mph0.01 inOvercast
1:46 PM71.6 °F62.6 °F73 %30.07 in5.0 miEast (90°)11.5 mph0.00 inRainLight Rain
1:53 PM69.1 °F63.0 °F81 %30.06 in3.0 miENE (70°)4.6 mph0.01 inRainRain
2:14 PM71.6 °F64.4 °F78 %30.06 in10.0 miCalm0.00 inOvercast
2:53 PM70.0 °F63.0 °F78 %30.05 in7.0 miCalm0.00 inRainRain
3:53 PM73.0 °F64.0 °F73 %30.04 in10.0 miNE (50°)9.2 mph0.00 inMostly Cloudy
4:53 PM73.0 °F64.0 °F73 %30.05 in10.0 miENE (60°)10.4 mphScattered Clouds
5:00 PM71.6 °F62.6 °F73 %30.05 in10.0 miENE (70°)10.4 mphOvercast
5:46 PM69.8 °F62.6 °F78 %30.05 in10.0 miNE (40°)8.1 mphScattered Clouds
5:53 PM71.1 °F63.0 °F75 %30.05 in10.0 miNE (50°)8.1 mphScattered Clouds
6:00 PM71.6 °F62.6 °F73 %30.06 in10.0 miNE (50°)9.2 mphMostly Cloudy
6:53 PM71.1 °F64.0 °F78 %30.06 in10.0 miENE (60°)6.9 mphOvercast
7:53 PM71.1 °F64.0 °F78 %30.07 in10.0 miENE (70°)8.1 mphMostly Cloudy
8:13 PM71.6 °F64.4 °F78 %30.08 in10.0 miENE (60°)6.9 mphPartly Cloudy
8:35 PM71.6 °F64.4 °F78 %30.08 in10.0 miEast (80°)12.7 mph0.00 inRainLight Rain
8:53 PM70.0 °F64.0 °F81 %30.08 in10.0 miEast (80°)10.4 mph0.00 inOvercast
9:01 PM71.6 °F64.4 °F78 %30.08 in10.0 miEast (80°)10.4 mphMostly Cloudy
9:08 PM71.6 °F64.4 °F78 %30.08 in10.0 miENE (70°)11.5 mphScattered Clouds
9:22 PM71.6 °F64.4 °F78 %30.09 in10.0 miEast (80°)9.2 mphMostly Cloudy
9:29 PM71.6 °F64.4 °F78 %30.08 in10.0 miEast (80°)11.5 mphMostly Cloudy
9:42 PM71.6 °F64.4 °F78 %30.09 in10.0 miEast (80°)11.5 mphMostly Cloudy
9:53 PM71.1 °F64.9 °F81 %30.08 in10.0 miEast (80°)10.4 mphMostly Cloudy
10:00 PM71.6 °F64.4 °F78 %30.09 in10.0 miEast (90°)12.7 mphMostly Cloudy
10:37 PM71.6 °F64.4 °F78 %30.08 in10.0 miEast (80°)8.1 mphScattered Clouds
10:53 PM71.1 °F64.9 °F81 %30.08 in10.0 miEast (80°)11.5 mphMostly Cloudy
11:17 PM71.6 °F64.4 °F78 %30.08 in10.0 miEast (80°)11.5 mphMostly Cloudy
11:53 PM71.1 °F66.0 °F84 %30.07 in10.0 miEast (90°)11.5 mphOvercast
Hourly data recorded from PHLI, located miles away from Puuhi, Hawaii







STORIES FROM OUR PARTNERS